When you browse on this site, cookies collect data to enhance your experience and personalize the content and advertising you see.
Visit our Privacy Policy to learn more. By continuing to use the site, you agree to this use of cookies and data.
EN

Hourly Weather Saint Nazaire

Today, 8 August, Saturday

Time Temperature Precipitation Wind Pressure Humidity
00:00 +21°C° 0.1 mm 1 mps 762 mmHg 74%
01:00 +20°C° 0 mm 2 mps 762 mmHg 75%
02:00 +19°C° 0 mm 3 mps 762 mmHg 77%
03:00 +19°C° 0 mm 4 mps 761 mmHg 79%
04:00 +19°C° 0 mm 3 mps 762 mmHg 80%
05:00 +19°C° 0 mm 3 mps 762 mmHg 81%
06:00 +19°C° 0 mm 2 mps 762 mmHg 82%
07:00 +21°C° 0 mm 2 mps 762 mmHg 73%
08:00 +25°C° 0 mm 2 mps 763 mmHg 63%
09:00 +27°C° 0 mm 2 mps 763 mmHg 54%
10:00 +29°C° 0 mm 3 mps 763 mmHg 49%
11:00 +31°C° 0 mm 3 mps 763 mmHg 44%
12:00 +33°C° 0 mm 3 mps 763 mmHg 39%
13:00 +34°C° 0 mm 4 mps 762 mmHg 40%
14:00 +34°C° 0 mm 5 mps 762 mmHg 40%
15:00 +34°C° 0 mm 5 mps 762 mmHg 40%
16:00 +33°C° 0 mm 5 mps 762 mmHg 43%
17:00 +32°C° 0 mm 5 mps 762 mmHg 45%
18:00 +30°C° 0 mm 6 mps 762 mmHg 48%
19:00 +28°C° 0 mm 5 mps 762 mmHg 57%
20:00 +25°C° 0 mm 5 mps 763 mmHg 66%
21:00 +21°C° 0 mm 5 mps 763 mmHg 75%
22:00 +20°C° 0 mm 4 mps 763 mmHg 80%
23:00 +19°C° 0 mm 4 mps 763 mmHg 86%

Tomorrow, 9 August, Sunday

Time Temperature Precipitation Wind Pressure Humidity
00:00 +18°C° 0 mm 3 mps 762 mmHg 92%
01:00 +18°C° 0 mm 3 mps 762 mmHg 92%
02:00 +18°C° 0 mm 2 mps 762 mmHg 92%
03:00 +18°C° 0 mm 2 mps 762 mmHg 92%
04:00 +18°C° 0 mm 2 mps 762 mmHg 92%
05:00 +18°C° 0 mm 3 mps 762 mmHg 91%
06:00 +19°C° 0 mm 3 mps 762 mmHg 91%
07:00 +21°C° 0 mm 2 mps 762 mmHg 82%
08:00 +24°C° 0 mm 2 mps 762 mmHg 73%
09:00 +27°C° 0 mm 1 mps 762 mmHg 65%
10:00 +28°C° 0 mm 1 mps 762 mmHg 57%
11:00 +30°C° 0 mm 2 mps 761 mmHg 49%
12:00 +33°C° 0 mm 3 mps 761 mmHg 41%
13:00 +33°C° 0 mm 3 mps 761 mmHg 41%
14:00 +33°C° 0 mm 4 mps 760 mmHg 41%
15:00 +33°C° 0 mm 5 mps 760 mmHg 40%
16:00 +33°C° 0 mm 5 mps 760 mmHg 42%
17:00 +32°C° 0 mm 5 mps 759 mmHg 44%
18:00 +30°C° 0 mm 5 mps 759 mmHg 47%
19:00 +28°C° 0 mm 5 mps 759 mmHg 55%
20:00 +25°C° 0 mm 5 mps 759 mmHg 63%
21:00 +22°C° 0 mm 5 mps 760 mmHg 71%
22:00 +21°C° 0.4 mm 5 mps 760 mmHg 77%
23:00 +20°C° 0.4 mm 5 mps 760 mmHg 84%

Day after tomorrow, 10 August, Monday

Time Temperature Precipitation Wind Pressure Humidity
00:00 +17°C° 0.4 mm 5 mps 760 mmHg 91%
01:00 +17°C° 0.4 mm 5 mps 759 mmHg 92%
02:00 +17°C° 0.4 mm 5 mps 759 mmHg 93%
03:00 +17°C° 0.4 mm 5 mps 759 mmHg 93%
04:00 +17°C° 0.6 mm 5 mps 759 mmHg 93%
05:00 +17°C° 0.6 mm 5 mps 759 mmHg 93%
06:00 +18°C° 0.6 mm 4 mps 759 mmHg 93%
07:00 +20°C° 0.4 mm 4 mps 759 mmHg 89%
08:00 +21°C° 0.4 mm 4 mps 759 mmHg 85%
09:00 +23°C° 0.4 mm 4 mps 759 mmHg 80%
10:00 +25°C° 0.3 mm 4 mps 759 mmHg 73%
11:00 +27°C° 0.3 mm 4 mps 759 mmHg 65%
12:00 +29°C° 0.3 mm 3 mps 759 mmHg 58%
13:00 +29°C° 0.1 mm 4 mps 759 mmHg 55%
14:00 +30°C° 0.1 mm 5 mps 759 mmHg 53%
15:00 +32°C° 0.1 mm 5 mps 759 mmHg 50%
16:00 +29°C° 0 mm 6 mps 759 mmHg 53%
17:00 +28°C° 0 mm 6 mps 759 mmHg 57%
18:00 +27°C° 0 mm 7 mps 759 mmHg 60%
19:00 +24°C° 0.3 mm 7 mps 759 mmHg 66%
20:00 +21°C° 0.3 mm 7 mps 759 mmHg 73%
21:00 +18°C° 0.3 mm 7 mps 760 mmHg 80%
22:00 +19°C° 0.2 mm 6 mps 760 mmHg 82%
23:00 +17°C° 0.2 mm 5 mps 760 mmHg 84%

11 August, Tuesday

Time Temperature Precipitation Wind Pressure Humidity
00:00 +16°C° 0.2 mm 5 mps 760 mmHg 86%
01:00 +16°C° 0 mm 5 mps 760 mmHg 87%
02:00 +16°C° 0 mm 5 mps 760 mmHg 88%
03:00 +15°C° 0 mm 4 mps 760 mmHg 89%
04:00 +17°C° 0 mm 4 mps 760 mmHg 88%
05:00 +17°C° 0 mm 4 mps 760 mmHg 87%
06:00 +17°C° 0 mm 4 mps 760 mmHg 86%
07:00 +19°C° 0 mm 4 mps 760 mmHg 79%
08:00 +22°C° 0 mm 3 mps 760 mmHg 71%
09:00 +25°C° 0 mm 3 mps 760 mmHg 63%
10:00 +27°C° 0 mm 3 mps 760 mmHg 58%
11:00 +28°C° 0 mm 3 mps 760 mmHg 54%
12:00 +30°C° 0 mm 3 mps 760 mmHg 49%
13:00 +31°C° 0 mm 3 mps 760 mmHg 47%
14:00 +31°C° 0 mm 3 mps 760 mmHg 46%
15:00 +33°C° 0 mm 4 mps 759 mmHg 44%
16:00 +32°C° 0.1 mm 4 mps 759 mmHg 47%
17:00 +30°C° 0.1 mm 5 mps 759 mmHg 49%
18:00 +29°C° 0.1 mm 5 mps 758 mmHg 52%
19:00 +27°C° 0.2 mm 5 mps 759 mmHg 61%
20:00 +25°C° 0.2 mm 5 mps 759 mmHg 69%
21:00 +22°C° 0.2 mm 5 mps 759 mmHg 78%
22:00 +21°C° 0.7 mm 4 mps 759 mmHg 83%
23:00 +20°C° 0.7 mm 4 mps 759 mmHg 88%

12 August, Wednesday

Time Temperature Precipitation Wind Pressure Humidity
00:00 +20°C° 0.7 mm 3 mps 760 mmHg 93%
01:00 +20°C° 0.3 mm 3 mps 759 mmHg 94%
02:00 +20°C° 0.3 mm 3 mps 759 mmHg 94%
03:00 +20°C° 0.3 mm 2 mps 758 mmHg 95%
04:00 +20°C° 0 mm 2 mps 758 mmHg 94%
05:00 +20°C° 0 mm 2 mps 758 mmHg 94%
06:00 +21°C° 0 mm 2 mps 758 mmHg 93%
07:00 +21°C° 0.2 mm 2 mps 758 mmHg 92%
08:00 +21°C° 0.2 mm 2 mps 759 mmHg 91%
09:00 +23°C° 0.2 mm 2 mps 759 mmHg 90%
10:00 +22°C° 0.9 mm 3 mps 759 mmHg 90%
11:00 +22°C° 0.9 mm 3 mps 759 mmHg 89%
12:00 +22°C° 0.9 mm 4 mps 759 mmHg 89%
13:00 +22°C° 1 mm 4 mps 759 mmHg 88%
14:00 +22°C° 1 mm 4 mps 759 mmHg 88%
15:00 +22°C° 1 mm 4 mps 759 mmHg 87%
16:00 +22°C° 0.5 mm 4 mps 759 mmHg 87%
17:00 +22°C° 0.5 mm 4 mps 758 mmHg 87%
18:00 +22°C° 0.5 mm 4 mps 758 mmHg 87%
19:00 +21°C° 0.2 mm 3 mps 759 mmHg 90%
20:00 +21°C° 0.2 mm 3 mps 759 mmHg 93%
21:00 +20°C° 0.2 mm 3 mps 760 mmHg 96%
22:00 +20°C° 0.1 mm 3 mps 759 mmHg 96%
23:00 +20°C° 0.1 mm 3 mps 759 mmHg 96%

13 August, Thursday

Time Temperature Precipitation Wind Pressure Humidity
00:00 +19°C° 0.1 mm 3 mps 759 mmHg 96%
01:00 +19°C° 0 mm 3 mps 759 mmHg 96%
02:00 +20°C° 0 mm 3 mps 759 mmHg 96%
03:00 +20°C° 0 mm 3 mps 759 mmHg 96%
04:00 +20°C° 0 mm 3 mps 759 mmHg 95%
05:00 +20°C° 0 mm 3 mps 759 mmHg 95%
06:00 +20°C° 0 mm 3 mps 759 mmHg 94%
07:00 +20°C° 0 mm 4 mps 759 mmHg 89%
08:00 +21°C° 0 mm 5 mps 759 mmHg 85%
09:00 +22°C° 0 mm 6 mps 759 mmHg 80%
10:00 +22°C° 0 mm 6 mps 759 mmHg 78%
11:00 +22°C° 0 mm 7 mps 760 mmHg 75%
12:00 +22°C° 0 mm 7 mps 760 mmHg 73%
13:00 +22°C° 0 mm 7 mps 760 mmHg 73%
14:00 +21°C° 0 mm 8 mps 760 mmHg 73%
15:00 +21°C° 0 mm 8 mps 760 mmHg 73%
16:00 +20°C° 0 mm 8 mps 760 mmHg 74%
17:00 +20°C° 0 mm 8 mps 760 mmHg 74%
18:00 +20°C° 0 mm 8 mps 760 mmHg 75%
19:00 +18°C° 0 mm 7 mps 761 mmHg 76%
20:00 +18°C° 0 mm 7 mps 761 mmHg 78%
21:00 +17°C° 0 mm 6 mps 761 mmHg 80%
22:00 +17°C° 0 mm 6 mps 761 mmHg 82%
23:00 +17°C° 0 mm 6 mps 761 mmHg 84%
Show more